Wind_Speed
12 12 11 10 9 7 7 7 8 8 8 9 9 9 10 11 10 9 9 10 10 10 9 9 8 6 6 6 9 9 12 14 15 15 18 20 17 18 19 23 20 22 23 17 19 24 34 22 35 34 30 39 40 39
12 12 12 13 12 11 10 10 10 10 10 11 12 11 12 12 12 11 10 9 10 10 9 8 6 6 6 7 9 10 12 14 13 14 15 13 14 15 18 19 23 21 20 18 21 21 26 28 32 33 38 38 37 38
15 14 12 11 12 13 13 13 13 13 12 12 13 13 13 13 13 12 11 10 10 10 9 8 7 7 8 9 10 12 13 14 12 12 14 12 12 14 17 20 21 22 20 19 20 20 24 26 29 30 32 32 32 35
16 16 15 15 13 12 12 13 13 13 15 15 14 14 14 14 13 13 13 11 10 10 11 11 10 9 9 10 11 12 14 14 12 13 14 14 13 17 19 20 23 22 23 24 23 23 21 21 24 28 29 29 28 29
14 14 14 17 17 16 15 14 14 14 16 17 17 17 16 16 15 14 15 14 13 12 12 13 13 12 11 12 12 14 15 14 14 16 17 18 19 19 18 21 25 27 28 28 24 25 24 19 22 25 24 24 26 28
17 16 15 15 15 16 18 18 17 15 15 18 19 19 19 19 19 17 16 16 16 15 15 14 14 14 13 13 14 15 15 15 15 17 17 18 17 15 18 22 28 30 29 28 23 23 22 19 23 27 26 26 28 28
20 20 18 17 17 17 18 19 19 19 17 17 20 21 22 22 22 21 19 18 18 17 17 16 16 16 15 15 15 16 16 16 16 16 16 15 15 17 20 24 29 27 24 26 26 26 25 25 23 23 27 25 23 24
23 22 22 21 20 19 19 19 19 21 22 20 19 21 24 25 25 24 23 21 20 19 19 19 18 18 17 16 16 17 17 17 17 16 15 16 17 19 21 22 26 24 26 26 30 30 28 25 21 22 22 23 21 23
25 24 23 22 22 21 22 21 21 21 23 24 23 23 22 24 26 26 26 25 25 22 20 21 21 19 20 18 17 17 17 18 18 16 15 17 18 19 16 20 21 27 25 28 29 28 28 27 27 30 29 25 26 27
28 27 26 24 23 22 22 23 22 23 24 25 26 27 25 27 25 27 27 28 28 28 24 23 22 21 21 19 19 18 18 18 18 16 16 16 16 18 17 20 23 25 26 25 24 25 28 30 29 25 21 18 14 18
31 30 29 27 26 25 24 23 24 24 25 25 27 28 29 31 31 31 31 29 29 29 28 26 26 22 23 22 20 19 18 19 19 13 18 16 16 16 17 20 23 25 23 24 25 31 34 27 19 21 18 15 20 21
33 32 31 30 29 28 27 27 27 26 27 27 27 27 29 31 33 35 33 32 33 32 34 36 29 24 23 23 21 20 19 20 20 16 18 18 16 16 18 19 22 23 21 24 23 27 34 34 27 24 22 23 23 23
35 34 34 32 32 31 30 30 30 29 28 28 28 29 29 31 32 33 35 34 35 33 33 34 28 24 23 23 22 21 20 20 18 18 17 19 16 15 17 19 20 21 19 20 20 26 30 28 27 28 30 29 27 24
35 35 35 33 33 33 32 32 32 31 31 29 30 30 30 31 31 31 33 34 34 35 32 34 29 24 24 23 22 21 20 20 20 17 18 18 16 15 16 18 19 19 17 18 19 20 25 23 25 28 31 34 32 25
36 36 35 34 34 34 33 33 33 33 32 32 33 32 30 31 32 33 33 35 35 35 35 35 34 25 24 24 23 21 21 21 18 17 19 17 16 15 15 17 18 15 14 16 16 17 20 23 23 26 31 34 34 25
37 36 34 35 34 34 34 34 33 34 34 35 34 30 30 30 30 32 33 34 34 33 35 35 37 25 24 24 22 22 21 20 18 19 18 17 16 16 15 15 15 14 10 13 15 15 17 19 21 24 27 29 31 34
36 34 35 34 34 34 34 35 35 36 37 35 29 31 33 32 30 30 32 33 32 33 31 36 38 24 24 24 22 21 21 19 19 21 18 18 15 17 16 14 14 13 11 12 13 14 14 16 20 22 24 25 26 29
34 35 34 34 34 34 34 35 36 37 35 33 32 33 31 33 34 32 33 32 31 31 31 38 37 24 24 23 23 20 20 19 20 20 18 17 17 16 15 13 11 12 11 11 11 13 14 15 17 19 21 22 24 25
34 33 32 32 33 34 34 35 35 35 32 33 33 34 33 32 30 30 32 33 33 32 31 38 33 21 22 23 22 20 19 19 19 17 18 18 18 17 16 14 14 13 11 10 11 11 12 13 15 16 18 20 21 22
33 32 32 32 33 33 33 33 33 32 32 33 34 34 35 34 34 33 34 34 34 30 30 31 20 22 21 22 19 19 17 17 18 16 18 18 18 17 17 16 15 14 12 11 12 12 12 13 14 15 17 18 20 20
31 31 31 31 30 30 30 30 31 31 32 32 32 33 32 32 31 31 31 32 29 26 32 23 20 21 21 18 17 17 15 17 17 18 18 17 17 14 18 17 16 15 12 11 14 14 14 14 15 16 18 19 20 23
26 26 25 25 26 27 29 29 28 28 28 29 28 29 28 26 26 24 25 21 27 26 20 19 20 18 14 17 19 17 17 18 18 17 19 19 18 16 16 17 17 15 12 12 14 15 15 15 16 18 19 21 22 23
23 23 23 23 23 22 21 21 18 17 16 16 17 17 15 13 15 18 24 27 21 17 16 16 15 15 15 18 16 16 17 17 17 17 18 19 18 15 16 16 17 15 14 13 14 15 15 16 16 18 21 23 24 25
21 21 22 20 19 17 15 13 12 11 11 9 8 10 14 19 22 26 21 18 14 13 14 14 13 13 14 14 16 17 17 15 15 16 17 18 17 14 15 16 16 15 14 14 14 14 14 14 16 19 21 23 24 26
18 18 17 15 15 11 8 8 7 6 7 9 11 13 15 11 10 9 9 12 13 14 13 13 13 13 14 14 15 16 15 14 15 16 17 16 16 15 15 16 17 16 14 13 14 15 14 14 16 18 20 21 22 25
16 17 16 14 12 11 11 9 8 7 7 7 8 8 9 9 9 10 11 12 14 14 15 16 15 14 13 14 15 15 16 15 16 16 16 16 15 15 15 15 14 14 14 13 13 12 13 15 16 18 20 19 19 22
15 15 14 12 11 10 10 9 8 7 7 7 7 8 8 9 9 11 13 15 15 16 16 16 15 14 14 16 15 15 15 14 15 16 15 16 15 13 16 19 17 15 13 12 11 12 12 13 16 18 20 19 18 21
13 13 12 10 9 9 9 9 9 8 8 8 9 9 9 7 8 13 14 13 14 16 15 15 16 16 16 16 15 14 15 15 16 17 16 14 18 18 18 20 23 14 10 10 8 7 10 13 16 18 21 19 18 21
11 10 9 8 8 8 8 9 8 8 8 9 10 11 10 12 14 14 15 15 14 15 16 16 16 17 17 17 16 16 15 16 17 17 16 15 17 15 16 18 15 10 7 7 6 7 10 13 15 18 20 20 18 18
15 13 11 9 8 8 8 9 9 9 9 9 8 6 7 9 11 12 16 18 17 15 16 17 16 16 17 18 18 16 16 17 18 19 21 19 21 22 17 14 13 15 10 7 6 7 9 12 15 17 16 14 13 15
19 16 13 10 7 7 9 10 11 9 9 9 10 10 11 11 12 12 13 14 17 18 18 18 17 16 16 16 17 17 18 18 18 21 21 20 16 17 16 14 14 16 7 7 7 7 9 11 13 13 12 14 16 21
25 22 17 12 9 10 9 8 8 9 10 13 16 17 18 16 16 17 17 16 15 18 18 18 16 16 17 16 16 15 17 17 14 17 16 16 16 16 16 16 17 10 9 10 8 8 9 11 14 14 16 16 18 19
29 26 20 16 13 10 8 8 10 11 11 11 13 14 16 16 15 18 17 15 15 17 18 18 16 15 16 16 15 13 14 14 14 17 19 17 14 15 15 14 12 12 12 10 9 9 10 12 14 15 17 18 19 20
Wind_Direction
272 270 264 260 260 263 268 271 268 263 256 255 252 241 228 228 231 236 239 251 261 261 256 254 247 241 246 268 287 297 305 309 312 313 322 322 322 328 330 327 329 319 312 300 284 275 261 265 251 262 251 257 256 254
275 273 271 265 258 259 265 270 270 268 261 256 255 241 228 232 237 241 248 260 261 252 246 228 225 244 273 290 298 309 315 318 312 315 321 317 324 339 345 335 337 331 320 305 292 281 278 281 273 266 260 263 260 258
263 266 273 270 261 261 266 268 266 260 259 258 250 243 238 235 236 239 243 255 257 249 234 229 243 264 277 289 297 309 318 316 300 307 312 313 316 336 340 340 335 326 326 325 310 292 280 280 277 271 264 268 268 264
263 263 262 264 265 266 263 264 266 265 258 253 246 241 244 244 243 241 242 251 255 252 240 242 255 267 278 283 296 306 312 309 287 292 304 311 308 313 320 324 328 326 324 329 325 313 310 291 283 277 275 275 272 267
254 262 259 257 260 263 264 263 266 266 262 256 252 248 246 246 247 249 249 251 254 255 251 251 261 267 275 282 291 300 306 300 280 288 295 305 309 311 317 326 331 329 324 319 316 310 305 300 292 288 291 289 279 269
249 253 257 262 264 262 261 263 266 264 264 259 256 253 250 250 248 251 253 254 255 259 261 262 263 264 271 278 287 294 298 295 285 284 299 309 306 313 318 329 332 331 331 329 330 332 327 304 296 293 293 291 283 279
249 252 254 257 262 264 264 263 259 261 261 261 257 256 254 252 252 253 256 257 259 262 263 267 265 267 267 274 283 290 292 292 289 287 297 311 306 310 311 319 328 333 341 334 329 324 321 312 305 300 297 293 300 288
248 250 252 255 259 262 263 262 260 259 259 259 260 261 262 257 253 253 255 259 261 263 267 269 269 267 267 270 278 287 289 290 286 287 296 308 310 310 315 321 331 337 326 335 333 330 326 324 316 319 317 311 299 303
247 249 250 251 255 258 261 262 261 257 259 259 258 260 265 265 257 254 255 257 261 264 267 268 269 269 268 269 274 283 284 288 284 283 291 306 311 321 326 329 335 341 333 321 330 330 331 325 319 310 307 304 304 299
244 246 249 252 254 257 259 260 262 264 260 260 262 261 261 263 265 262 258 256 258 260 262 263 264 269 266 265 270 278 283 286 281 281 285 297 309 322 323 326 336 334 336 339 336 337 332 323 318 315 313 312 326 328
245 247 248 249 253 254 257 260 260 262 264 263 263 261 260 260 263 262 261 263 262 261 259 256 257 260 261 261 266 272 277 280 280 279 276 283 302 318 322 332 335 337 344 342 346 351 348 346 346 346 341 360 334 330
248 249 250 251 252 255 256 258 261 263 266 267 266 267 265 261 259 261 263 266 266 262 263 258 255 250 254 257 261 267 273 276 279 270 271 277 294 312 317 323 331 330 335 343 349 358 358 7 4 359 354 346 341 334
249 250 251 252 254 256 257 260 262 264 266 267 268 268 269 266 266 266 265 265 268 274 272 264 244 243 248 251 256 260 268 275 274 270 270 273 284 297 311 321 322 323 330 337 345 356 346 353 358 14 12 7 360 352
249 251 253 254 255 256 257 259 262 264 267 269 268 268 267 270 268 268 265 265 268 269 277 268 242 235 244 249 252 257 266 270 272 273 265 268 275 285 306 317 319 319 325 332 337 346 347 354 358 5 10 15 13 13
249 251 252 254 255 257 259 260 262 265 267 268 269 269 272 271 272 269 265 264 265 265 267 270 250 222 238 246 248 253 260 267 273 266 265 265 270 275 295 313 314 316 330 330 337 340 341 350 360 9 12 16 18 14
250 251 253 253 255 257 259 260 261 263 267 267 268 273 273 271 269 266 262 263 263 261 264 265 244 217 234 240 245 250 259 265 266 266 265 264 269 269 283 301 309 312 323 321 327 336 344 350 3 9 11 13 13 18
249 251 252 254 255 256 257 259 261 263 266 269 270 267 269 266 266 266 259 260 263 260 262 259 233 218 231 237 242 248 254 259 261 261 262 261 267 267 274 293 301 306 316 317 314 324 337 351 359 6 7 10 13 20
246 248 251 253 255 256 257 257 260 263 267 266 264 264 266 264 261 262 256 256 258 259 259 249 230 209 228 234 238 244 255 254 253 261 263 258 261 266 273 289 299 302 311 309 306 317 333 345 354 358 1 2 3 10
244 247 248 250 252 253 255 258 261 263 263 262 262 263 263 257 257 257 255 256 254 255 257 243 216 215 229 235 239 240 241 249 252 254 254 253 257 265 268 278 283 283 289 297 299 306 320 332 343 349 355 358 358 358
238 239 242 245 248 251 255 256 258 259 260 263 264 263 262 257 252 262 256 251 252 251 255 218 199 221 228 235 238 239 239 245 250 252 249 248 250 262 275 275 274 275 275 285 290 295 303 317 329 341 348 350 349 350
234 238 241 245 248 251 254 255 256 261 263 260 264 261 258 254 251 252 246 240 237 241 204 193 210 221 230 234 234 233 233 238 242 243 242 245 245 251 250 271 270 269 271 281 286 291 300 310 322 331 337 340 340 340
230 233 235 237 240 246 251 255 259 261 260 259 256 253 252 252 248 238 234 237 213 188 189 199 211 225 225 224 229 230 231 234 238 241 240 242 244 254 263 271 271 269 272 275 281 288 297 307 317 325 332 333 334 335
225 227 228 233 242 249 246 247 249 250 249 247 244 244 245 253 252 240 218 191 182 183 194 211 218 222 223 228 232 232 236 244 249 249 242 243 243 254 268 273 271 268 266 271 277 285 295 303 312 319 323 327 331 333
223 226 235 238 234 223 221 226 235 245 246 246 246 250 241 231 216 189 176 175 184 209 215 218 224 230 230 235 237 236 241 248 250 249 244 244 241 250 267 276 273 269 266 268 274 280 288 298 309 318 323 326 330 335
215 212 209 208 204 194 202 210 209 203 190 190 194 195 184 163 185 194 192 204 209 216 223 228 232 236 238 239 239 238 239 243 246 245 243 242 241 249 260 271 267 262 261 269 275 281 289 302 315 319 322 329 334 337
202 199 189 182 188 198 200 204 207 209 212 211 207 203 203 205 212 219 216 214 217 221 225 230 233 233 238 239 240 239 239 242 245 243 239 240 239 251 259 255 251 251 261 268 275 288 297 308 315 321 327 329 327 336
190 189 177 178 184 189 194 199 204 204 204 208 215 221 221 223 223 226 223 222 224 229 232 236 241 243 245 243 244 244 243 241 243 242 236 234 235 263 268 267 237 234 246 263 277 285 297 310 320 323 327 323 321 331
178 176 173 180 190 194 199 203 202 201 205 207 212 216 214 207 223 228 230 233 233 232 232 236 240 240 244 247 248 245 243 240 237 235 231 241 241 251 278 270 262 249 271 271 272 290 309 319 322 326 330 328 321 324
194 189 192 197 206 209 202 192 187 189 197 207 212 218 201 217 217 222 230 238 240 239 236 235 237 241 244 244 240 241 241 236 231 229 220 237 250 250 280 261 247 244 255 244 271 301 318 322 325 331 334 331 328 334
205 201 205 210 210 202 191 186 188 198 205 213 216 225 235 236 241 238 232 237 240 242 235 230 232 237 241 244 242 241 239 237 231 233 248 248 252 261 268 275 269 280 226 242 268 295 315 324 334 335 333 338 346 350
204 203 209 213 203 184 191 205 218 230 238 243 246 254 261 263 259 260 257 251 244 241 236 228 230 234 234 239 239 239 239 237 242 231 242 244 252 252 247 260 271 283 225 252 268 290 306 330 327 330 334 330 328 332
206 204 207 209 205 209 217 220 230 243 253 256 259 262 264 261 260 262 263 255 239 231 231 228 229 234 235 237 243 246 244 244 254 235 222 234 240 241 255 268 263 208 226 247 259 281 311 326 327 332 334 331 328 328
210 204 202 204 213 223 227 239 254 262 262 262 264 267 270 270 268 264 261 244 230 224 226 226 231 236 233 239 244 246 242 248 236 229 230 235 248 247 277 254 208 224 238 247 263 287 306 313 318 324 326 326 326 327
Height
5816 5816 5816 5817 5817 5818 5818 5819 5819 5819 5820 5821 5822 5823 5824 5825 5826 5827 5828 5828 5829 5828 5828 5828 5828 5829 5829 5829 5829 5828 5827 5825 5822 5820 5818 5815 5812 5808 5805 5800 5797 5792 5787 5785 5783 5780 5776 5768 5769 5774 5772 5772 5771 5772
5812 5813 5813 5813 5814 5815 5815 5816 5816 5817 5817 5818 5819 5820 5821 5822 5823 5824 5825 5825 5825 5825 5825 5825 5825 5825 5825 5825 5824 5823 5821 5819 5816 5815 5812 5809 5807 5804 5800 5795 5791 5787 5783 5779 5775 5773 5769 5765 5762 5762 5762 5762 5761 5759
5808 5809 5809 5810 5810 5811 5812 5812 5813 5813 5814 5814 5815 5816 5817 5818 5820 5821 5821 5821 5821 5821 5822 5822 5822 5822 5821 5820 5819 5818 5815 5813 5812 5810 5807 5805 5802 5800 5796 5792 5787 5782 5778 5774 5770 5765 5760 5758 5755 5752 5750 5751 5752 5750
5803 5804 5805 5806 5807 5807 5808 5808 5809 5809 5810 5811 5812 5813 5814 5815 5816 5816 5817 5818 5818 5818 5818 5818 5818 5817 5817 5816 5814 5813 5811 5808 5807 5805 5803 5800 5798 5795 5792 5788 5784 5779 5774 5769 5764 5759 5756 5751 5748 5744 5742 5742 5741 5741
5798 5799 5800 5801 5802 5802 5803 5804 5804 5805 5805 5806 5807 5809 5810 5811 5812 5812 5813 5813 5814 5815 5814 5813 5813 5812 5811 5810 5809 5808 5805 5803 5802 5800 5798 5796 5793 5790 5786 5782 5777 5772 5767 5762 5757 5752 5747 5745 5740 5737 5735 5734 5732 5730
5792 5793 5795 5795 5796 5797 5798 5799 5800 5800 5801 5801 5802 5804 5805 5806 5807 5807 5808 5809 5809 5809 5809 5809 5808 5807 5806 5805 5804 5802 5800 5798 5797 5795 5793 5791 5788 5785 5782 5777 5773 5767 5761 5754 5749 5746 5741 5737 5734 5730 5726 5724 5722 5720
5786 5787 5789 5790 5790 5791 5792 5793 5794 5795 5795 5796 5797 5798 5799 5800 5801 5802 5803 5803 5803 5803 5803 5803 5802 5801 5800 5799 5798 5796 5794 5793 5791 5790 5788 5786 5783 5781 5777 5774 5769 5763 5757 5751 5745 5740 5737 5732 5728 5724 5719 5716 5713 5711
5778 5780 5782 5783 5784 5785 5786 5786 5787 5788 5789 5790 5791 5792 5793 5793 5794 5796 5796 5797 5797 5798 5797 5797 5796 5795 5794 5793 5792 5790 5789 5787 5786 5784 5783 5781 5779 5776 5773 5769 5764 5759 5754 5748 5743 5736 5730 5726 5721 5717 5713 5709 5706 5702
5771 5773 5774 5776 5777 5778 5779 5780 5780 5781 5782 5784 5784 5785 5786 5786 5787 5788 5789 5790 5790 5792 5791 5790 5789 5790 5787 5787 5786 5785 5783 5781 5781 5779 5778 5777 5773 5771 5769 5765 5760 5755 5751 5746 5739 5732 5726 5721 5716 5710 5705 5701 5698 5695
5763 5765 5767 5768 5769 5770 5772 5773 5773 5774 5775 5776 5777 5778 5779 5779 5780 5781 5781 5781 5782 5782 5783 5783 5782 5782 5782 5781 5780 5780 5777 5776 5774 5775 5773 5771 5769 5766 5763 5760 5756 5751 5747 5741 5736 5731 5724 5717 5708 5702 5697 5694 5691 5687
5754 5756 5758 5760 5762 5763 5764 5765 5766 5767 5767 5768 5768 5769 5771 5771 5772 5772 5772 5774 5774 5774 5775 5774 5773 5774 5774 5774 5773 5773 5771 5770 5769 5770 5767 5766 5765 5762 5759 5755 5751 5747 5743 5738 5733 5726 5717 5709 5704 5700 5695 5691 5688 5683
5745 5747 5749 5751 5753 5754 5755 5756 5757 5758 5759 5760 5760 5760 5761 5762 5762 5763 5764 5765 5764 5765 5765 5764 5764 5765 5767 5766 5766 5766 5765 5764 5763 5763 5761 5760 5760 5758 5755 5752 5748 5745 5741 5736 5731 5725 5720 5712 5706 5700 5695 5690 5685 5680
5734 5737 5739 5741 5743 5745 5747 5747 5748 5749 5750 5750 5751 5751 5752 5752 5752 5753 5754 5756 5756 5756 5755 5754 5754 5757 5758 5759 5759 5759 5758 5758 5758 5756 5756 5755 5755 5754 5752 5748 5745 5742 5738 5734 5730 5724 5720 5714 5709 5702 5696 5689 5682 5675
5724 5726 5729 5731 5733 5735 5736 5738 5739 5740 5741 5742 5742 5742 5742 5743 5744 5745 5745 5745 5746 5745 5746 5745 5745 5748 5750 5751 5752 5752 5752 5752 5751 5751 5750 5750 5751 5750 5748 5745 5742 5739 5735 5732 5729 5724 5720 5716 5710 5703 5697 5690 5683 5675
5713 5715 5718 5720 5723 5724 5726 5728 5729 5730 5731 5731 5732 5732 5734 5734 5734 5733 5735 5735 5735 5736 5736 5737 5736 5739 5742 5744 5744 5745 5745 5745 5745 5745 5744 5745 5746 5745 5744 5742 5739 5736 5733 5730 5727 5723 5720 5715 5710 5704 5698 5691 5685 5679
5702 5705 5707 5709 5712 5714 5715 5717 5718 5720 5721 5721 5721 5725 5724 5724 5724 5724 5724 5725 5726 5726 5726 5727 5726 5730 5733 5736 5738 5738 5739 5739 5740 5738 5738 5740 5741 5740 5739 5737 5734 5732 5730 5728 5726 5723 5719 5715 5710 5705 5699 5694 5689 5683
5691 5694 5696 5699 5701 5703 5705 5707 5708 5709 5709 5711 5715 5713 5713 5714 5714 5714 5715 5715 5716 5717 5718 5718 5718 5721 5726 5728 5730 5731 5732 5733 5733 5732 5733 5734 5736 5735 5734 5733 5730 5728 5726 5725 5724 5721 5717 5713 5709 5705 5701 5696 5692 5686
5681 5683 5686 5688 5691 5693 5694 5695 5696 5698 5700 5702 5702 5702 5703 5703 5703 5704 5704 5706 5707 5708 5708 5708 5709 5713 5718 5721 5722 5724 5725 5726 5726 5726 5727 5729 5730 5729 5729 5728 5726 5724 5722 5722 5721 5719 5715 5712 5708 5705 5701 5697 5693 5687
5670 5673 5676 5678 5681 5682 5684 5685 5687 5688 5690 5689 5690 5691 5692 5692 5693 5693 5694 5695 5696 5698 5700 5700 5702 5708 5711 5713 5715 5717 5718 5719 5720 5721 5722 5724 5724 5724 5724 5724 5722 5721 5719 5718 5717 5716 5714 5711 5708 5704 5701 5697 5693 5689
5660 5663 5666 5668 5671 5672 5674 5676 5677 5677 5679 5679 5679 5680 5680 5681 5682 5682 5683 5685 5686 5688 5691 5694 5697 5702 5705 5707 5709 5711 5712 5714 5715 5716 5717 5718 5719 5720 5720 5719 5718 5717 5716 5715 5714 5713 5711 5709 5706 5702 5698 5695 5691 5688
5651 5654 5657 5659 5662 5664 5665 5666 5667 5668 5668 5668 5668 5669 5669 5669 5670 5671 5673 5674 5676 5681 5683 5687 5692 5697 5699 5701 5703 5704 5706 5708 5708 5709 5711 5713 5715 5716 5715 5715 5714 5714 5712 5711 5710 5709 5707 5705 5703 5700 5696 5692 5689 5685
5643 5646 5649 5651 5654 5655 5657 5657 5658 5658 5658 5658 5659 5659 5660 5660 5661 5662 5663 5667 5672 5675 5679 5683 5689 5692 5694 5695 5697 5699 5700 5701 5702 5704 5706 5708 5709 5710 5710 5710 5709 5709 5708 5707 5707 5705 5703 5701 5699 5696 5693 5690 5687 5683
5638 5640 5642 5645 5647 5648 5650 5650 5651 5651 5651 5651 5651 5652 5653 5654 5655 5658 5661 5666 5668 5672 5676 5681 5684 5686 5688 5690 5692 5694 5695 5696 5698 5699 5701 5703 5704 5705 5705 5705 5705 5705 5704 5703 5703 5702 5700 5698 5695 5692 5689 5686 5682 5679
5633 5635 5637 5639 5641 5643 5644 5645 5646 5647 5647 5647 5648 5649 5651 5653 5655 5657 5660 5663 5668 5672 5675 5678 5680 5682 5685 5686 5687 5689 5690 5692 5693 5695 5697 5698 5699 5701 5700 5700 5700 5700 5700 5699 5698 5697 5696 5694 5692 5689 5685 5682 5679 5675
5629 5631 5634 5635 5637 5639 5640 5642 5644 5645 5645 5646 5648 5649 5652 5654 5657 5659 5661 5665 5667 5670 5673 5675 5676 5678 5679 5681 5683 5684 5686 5688 5689 5690 5691 5693 5694 5695 5696 5696 5695 5695 5695 5695 5694 5693 5692 5690 5687 5685 5683 5679 5675 5671
5625 5628 5631 5633 5635 5638 5640 5641 5643 5644 5645 5647 5648 5650 5651 5653 5656 5659 5661 5663 5665 5666 5668 5670 5672 5674 5675 5677 5678 5680 5682 5683 5684 5685 5687 5688 5690 5691 5691 5690 5690 5691 5691 5690 5690 5688 5687 5685 5683 5681 5678 5675 5672 5668
5625 5628 5630 5632 5634 5636 5638 5640 5641 5643 5644 5645 5647 5649 5651 5653 5655 5657 5658 5659 5660 5663 5665 5667 5669 5670 5672 5673 5675 5675 5677 5678 5679 5681 5682 5684 5685 5686 5686 5685 5684 5684 5684 5684 5684 5684 5683 5681 5679 5677 5674 5671 5668 5665
5624 5626 5629 5632 5634 5635 5637 5638 5640 5642 5643 5645 5646 5648 5650 5652 5654 5653 5654 5656 5657 5659 5661 5663 5664 5665 5667 5668 5669 5671 5672 5673 5674 5676 5678 5679 5680 5681 5681 5681 5680 5680 5680 5680 5680 5680 5679 5677 5675 5673 5670 5667 5664 5661
5624 5626 5628 5630 5632 5633 5635 5637 5639 5641 5642 5642 5644 5645 5647 5648 5649 5650 5652 5652 5654 5655 5657 5658 5659 5660 5661 5663 5664 5666 5667 5668 5670 5671 5673 5675 5676 5677 5676 5676 5674 5676 5676 5676 5676 5676 5675 5674 5672 5669 5666 5663 5661 5658
5622 5624 5627 5628 5630 5632 5635 5636 5638 5639 5640 5641 5643 5644 5645 5646 5646 5647 5648 5649 5650 5651 5652 5654 5655 5656 5656 5657 5659 5661 5663 5664 5666 5667 5669 5669 5671 5672 5673 5672 5672 5671 5671 5672 5673 5673 5672 5670 5668 5666 5664 5662 5659 5657
5619 5622 5625 5627 5630 5631 5633 5634 5636 5638 5639 5640 5641 5642 5642 5643 5643 5644 5644 5645 5646 5647 5648 5650 5651 5652 5652 5653 5654 5656 5658 5659 5661 5662 5663 5665 5666 5667 5669 5668 5667 5667 5668 5669 5669 5669 5668 5666 5665 5664 5661 5659 5657 5655
5614 5619 5623 5626 5628 5630 5631 5633 5634 5636 5636 5637 5637 5637 5637 5638 5638 5638 5639 5639 5641 5642 5644 5645 5647 5648 5649 5650 5650 5652 5653 5654 5655 5656 5659 5661 5661 5662 5662 5662 5662 5663 5664 5665 5665 5665 5664 5662 5661 5659 5657 5656 5654 5651
5610 5616 5621 5624 5626 5628 5630 5631 5632 5632 5632 5632 5632 5632 5632 5632 5632 5632 5632 5633 5635 5637 5639 5641 5643 5644 5645 5646 5646 5648 5649 5650 5651 5653 5655 5656 5657 5657 5658 5657 5658 5659 5660 5661 5661 5660 5659 5658 5657 5655 5654 5652 5650 5647